Regional Weather Roundup
Issued by NWS Kansas City/Pleasant Hill, MO

Home | Current Version | Previous Version | Graphics & Text | Print | Product List | Glossary Off
Versions: 1 2 3 4 5 6 7 8 9 10 11 12 13 14 15 16 17 18 19 20 21 22 23 24 25 26 27 28 29 30 31 32 33 34 35 36 37 38 39 40 41 42 43 44 45 46 47 48 49 50

250
ASUS43 KEAX 182210
RWREAX

WEATHER ROUNDUP FOR EASTERN KANSAS AND NORTHWEST MISSOURI
NATIONAL WEATHER SERVICE KANSAS CITY/PLEASANT HILL MO
500 PM CDT MON SEP 18 2017

KSZ040-057-103>105-MOZ028-029-037-043-182300-
...KANSAS CITY METROPOLITAN AREA...

CITY           SKY/WX    TMP DP  RH WIND       PRES   REMARKS
K.C. INTL      PTSUNNY   74  68  81 S8        29.93F
K.C. DOWNTOWN  PTSUNNY   76  69  79 S5        29.92F
LEES SUMMIT    CLOUDY    71  67  87 S7        29.94F
OLATHE - IXD   MOSUNNY   74  67  78 S10G18    29.93F
OLATHE - OJC   PTSUNNY   73  68  84 S12       29.92F
LAWRENCE       PTSUNNY   78  70  76 VRB7      29.91S

$$

MOZ001>008-011>017-020>025-030>033-038>040-044>046-053-054-182300-
...NORTHERN AND CENTRAL MISSOURI...

CITY           SKY/WX    TMP DP  RH WIND       PRES   REMARKS
ST. JOSEPH     CLOUDY    77  69  76 S10       29.91F
MOSBY          MOCLDY    73  64  73 CALM      29.93F
WARRENSBURG    CLOUDY    70  66  88 CALM      29.93S
WHITEMAN AFB   PTSUNNY   69  69 100 SE3       29.92F
CLINTON        CLOUDY    73  70  88 NW3       29.93F
SEDALIA        CLOUDY    72  70  93 SE5       29.94F
WARSAW         NOT AVBL
CHILLICOTHE      N/A     73  68  84 CALM      29.95F
KIRKSVILLE     CLOUDY    74  67  78 CALM      29.96S

$$

MOZ041-047>049-056>058-063>065-088>090-097-182300-
...EASTERN AND SOUTHERN MISSOURI...

CITY           SKY/WX    TMP DP  RH WIND       PRES   REMARKS
ST. LOUIS INTL CLOUDY    83  67  58 S8        29.95R
SPIRIT OF STL  CLOUDY    81  70  69 SW3       29.93S
COLUMBIA       LGT RAIN  71  70  96 E10       29.96F FOG
JEFFERSON CITY TSTM      70  67  90 VRB3      29.97R VSB 1/2
ROLLA          CLOUDY    72  67  84 CALM      29.97F
OSAGE BEACH    LGT RAIN  74  71  91 CALM      29.97R
SPRINGFIELD    MOSUNNY   79  66  64 SW3       29.96F
BRANSON        PTSUNNY   77  70  78 E5        29.98F
JOPLIN         CLOUDY    81  66  60 S3        29.95F
WEST PLAINS    PTSUNNY   77  68  73 SW3       29.99F

$$

IAZ060-094-KSZ022-034>040-054-083-096-NEZ052-066-093-182300-
...KANSAS...SOUTHEAST NEBRASKA AND IOWA...

CITY           SKY/WX    TMP DP  RH WIND       PRES   REMARKS
TOPEKA         MOSUNNY   79  69  71 S8        29.90F
MANHATTAN      MOSUNNY   83  67  58 SE8       29.87F
EMPORIA        SUNNY     82  66  58 SE7       29.90F
CHANUTE        SUNNY     81  66  60 S12       29.93F
WICHITA        MOSUNNY   86  62  44 S12       29.88F
OMAHA          CLOUDY    73  65  75 S9        29.89F
LINCOLN        PTSUNNY   74  67  78 S7        29.89F
FALLS CITY     MOSUNNY   78  65  63 S6        29.90F
LAMONI         CLOUDY    71  68  90 SE6       29.94S
DES MOINES     CLOUDY    70  65  84 S7        29.92F

$$





USA.gov is the U.S. government's official web portal to all federal, state and local government web resources and services.